Regional Weather Roundup
Issued by NWS

Home | Current Version | Previous Version | Graphics & Text | Print | Product List | Glossary On
Versions: 1 2 3 4 5 6 7 8 9 10 11 12 13 14 15 16 17 18 19 20 21 22 23 24 25 26 27 28 29 30 31 32 33 34 35 36 37 38 39 40 41 42 43 44 45 46 47 48 49 50
000
ASUS43 KMPX 290010
RWRMN
WEATHER ROUNDUP FOR MINNESOTA
NATIONAL WEATHER SERVICE TWIN CITIES/CHANHASSEN MN
700 PM CDT FRI APR 28 2017


NOTE: "FAIR" INDICATES FEW OR NO CLOUDS BELOW 12,000 FEET WITH NO
SIGNIFICANT WEATHER AND/OR OBSTRUCTIONS TO VISIBILITY. N/A MEANS
CURRENT SKY AND/OR WEATHER CONDITIONS ARE NOT AVAILABLE.

MNZ060>063-068>070-290100-
   Twin Cities Metro

CITY           SKY/WX    TMP DP  RH WIND       PRES   REMARKS
TWIN CITIES    PTSUNNY   50  28  42 N12       29.98R
6HR MIN TEMP:  46; 6HR MAX TEMP:  51;

ST PAUL        MOSUNNY   49  29  46 N7        29.99R
CRYSTAL        MOSUNNY   49  25  39 N13       29.98R
BLAINE         PTSUNNY   52  28  40 N12G18    29.98R
LAKEVILLE      CLOUDY    46  30  53 NW7       29.98R
EDEN PRAIRIE   MOSUNNY   50  26  39 N12       29.97R
6HR MIN TEMP:  47; 6HR MAX TEMP:  53;

SOUTH ST PAUL  CLOUDY    50  30  46 N7        29.98R
LAKE ELMO      FAIR      46  32  57 N6        29.99R
$$
MNZ001>005-007-008-013>017-022>024-027-028-290100-
   Northwest Minnesota

CITY           SKY/WX    TMP DP  RH WIND       PRES   REMARKS
BEMIDJI        SUNNY     47  17  30 N12       30.02R
HALLOCK        SUNNY     54   5  14 N10G16    30.05R
ROSEAU         SUNNY     48  23  37 N8        30.04R
WARROAD        SUNNY     46  21  36 E5        30.04R
THIEF RVR FALL SUNNY     49  14  24 N13       30.06R
CROOKSTON      SUNNY     52  21  30 NE8       30.06R
FOSSTON        SUNNY     48  19  32 N12G18    30.05R
DETROIT LAKES  CLOUDY    48  18  29 N6G18     30.06R
MOORHEAD       SUNNY     52  21  30 N16       30.07R
PARK RAPIDS    CLOUDY    50  14  23 NW12      30.02R
MAHNOMEN       FAIR      48  23  37 N10       30.04R
$$
MNZ006-009>011-018-025>026-290100-
   North Central Minnesota

CITY           SKY/WX    TMP DP  RH WIND       PRES   REMARKS
BAUDETTE       SUNNY     45  21  38 NW8       30.03R
FLAG ISLAND    SUNNY     45  19  36 NW9       30.03R
INTL FALLS     SUNNY     44  19  36 N3        30.01R
6HR MIN TEMP:  37; 6HR MAX TEMP:  45;

WASKISH        SUNNY     46  25  42 N10G17    30.03R
BIG FORK       SUNNY     45  23  42 N8        30.01R
LONGVILLE      SUNNY     48  18  29 W8        30.00R
GRAND RAPIDS   MOSUNNY   46  24  42 N18       30.01R
CRANE LAKE     SUNNY     39  21  48 N9        30.02R
ORR            SUNNY     41  19  42 NW9       29.99R
COOK           SUNNY     39  25  56 N3        30.01R
WALKER         FAIR      46  18  31 N10       30.01R
$$
MNZ012-019>021-037-290100-
   Northeast Minnesota

CITY           SKY/WX    TMP DP  RH WIND       PRES   REMARKS
DULUTH         CLOUDY    46  26  45 N14G21    29.96R
6HR MIN TEMP:  41; 6HR MAX TEMP:  49;

ELY            PTSUNNY   36  23  60 NW7       29.99R
HIBBING        MOSUNNY   41  24  51 N15       29.99R
EVELETH        PTSUNNY   42  16  34 N9G20     30.00R
DULUTH HARBOR  MOSUNNY   46  32  57 N12       29.98R
TWO HARBORS    CLOUDY    48  30  49 N8        29.96R
SILVER BAY     SUNNY     43  28  56 NW6G16    29.96R
GRAND MARAIS     N/A     39  29  67 VRB3      29.98R
G MARAIS ARPRT CLOUDY    32  23  69 CALM      29.94R
$$
MNZ029>031-032-039>041-046>048-054>057-064-290100-
   West Central Minnesota

CITY           SKY/WX    TMP DP  RH WIND       PRES   REMARKS
FERGUS FALLS   SUNNY     48  23  37 N14       30.05R
WHEATON        CLOUDY    52  14  22 N15G22    30.08R
MORRIS         CLOUDY    52  25  35 NW16      30.03R
ALEXANDRIA     CLOUDY    50  22  33 N15       30.03R
ELBOW LAKE     FAIR      49  23  35 NW13G18   30.04R
WADENA         CLOUDY    46  21  36 NW8       30.02R
GLENWOOD       CLOUDY    48  21  34 NW13      30.03R
APPLETON       CLOUDY    52  23  32 N16G22    30.03R
BENSON         CLOUDY    54   5  14 NE10      30.04R
ORTONVILLE     CLOUDY    50  21  32 N14       30.04R
MADISON        CLOUDY    52  27  37 N16G22    30.04R
WILLMAR        FAIR      50  28  43 N9        30.02R
$$
MNZ033>034-036-042>043-049>051-058-059-290100-
   Central Minnesota

CITY           SKY/WX    TMP DP  RH WIND       PRES   REMARKS
ST CLOUD       CLOUDY    50  24  36 N8        29.99R
6HR MIN TEMP:  44; 6HR MAX TEMP:  52;

SAUK CENTRE    FAIR      49  22  33 NW9       30.01R
PAYNESVILLE    CLOUDY    51  19  28 N13       30.00R
AITKIN         CLOUDY    52  14  22 NW12G17   29.97R
PINE RIVER     CLOUDY    46  21  36 N7        30.04R
BRAINERD       CLOUDY    50  17  27 N14       30.00R
STAPLES        CLOUDY    48  10  21 N12       30.02R
LONG PRAIRIE   FAIR      50  19  29 W13       30.02R
LITTLE FALLS   CLOUDY    50  14  23 N5        30.00R
LITCHFIELD     MOSUNNY   52  25  35 VRB9      30.01R
BUFFALO        MOSUNNY   50  25  37 N7        30.00R
MAPLE LAKE     MOSUNNY   50  29  43 N9        30.00R
HUTCHINSON     SUNNY     50  31  47 N8        30.01R
$$
MNZ037-044-045-052-053-290100-
   East Central Minnesota

CITY           SKY/WX    TMP DP  RH WIND       PRES   REMARKS
PRINCETON      MOSUNNY   52  27  37 N7        29.99R
MORA           MOSUNNY   46  27  46 NW8       30.00R
CAMBRIDGE      PTSUNNY   52  32  46 CALM      29.97R
RUSH CITY      MOSUNNY   49  28  44 W5        29.98R
MOOSE LAKE     CLOUDY    48  27  43 N7        29.95R
HINCKLEY       FAIR      50  28  43 N6        29.97R
CLOQUET        CLOUDY    46  19  34 NW13G21   29.96R
MCGREGOR       CLOUDY    48  27  43 NW10G20   29.98R
$$
MNZ071>073-080-081-089-090-097-098-290100-
   Southwest Minnesota

CITY           SKY/WX    TMP DP  RH WIND       PRES   REMARKS
MONTEVIDEO     MOSUNNY   50  19  29 NE20      30.02R
GRANITE FALLS  MOSUNNY   51  24  34 N12       30.03R
CANBY          CLOUDY    50  23  35 N14G20    30.04R
MARSHALL       MOSUNNY   50  22  33 N16G22    30.02R
REDWOOD FALLS  MOSUNNY   52  23  32 N10       30.00R
OLIVIA         MOSUNNY   50  28  43 N10       30.01R
PIPESTONE      CLOUDY    48  21  34 NE12G17   29.99R
WINDOM         MOSUNNY   48  34  57 N10       29.99R
WORTHINGTON    CLOUDY    47  31  53 NE17G23   29.99R
JACKSON        CLOUDY    45  32  61 NE13      29.98S
TRACY          PTSUNNY   51  29  43 N17       30.00S
SLAYTON        MOSUNNY   47  30  51 N13G20    30.00R
$$
MNZ065>067-074>077-082>085-091>093-290100-
   South Central Minnesota

CITY           SKY/WX    TMP DP  RH WIND       PRES   REMARKS
MANKATO        MOSUNNY   48  31  51 N12       29.99R
NEW ULM        CLOUDY    48  28  46 N9        29.99R
ST JAMES       CLOUDY    46  32  57 N9        30.01R
FAIRMONT       CLOUDY    46  32  58 N12       29.98S
GLENCOE        CLOUDY    50  32  50 N8        29.99R
FARIBAULT      CLOUDY    48  32  53 N5        29.98R
OWATONNA       CLOUDY    46  30  53 N5        29.98R
WASECA         CLOUDY    45  32  61 N7        29.99R
ALBERT LEA     CLOUDY    45  30  57 N6        29.97R
$$
MNZ078>079-086>088-094>096-290100-
   Southeast Minnesota

CITY           SKY/WX    TMP DP  RH WIND       PRES   REMARKS
ROCHESTER      CLOUDY    44  30  57 N8        29.96R
6HR MIN TEMP:  43; 6HR MAX TEMP:  47;

RED WING       MOSUNNY   48  27  43 N6        29.97R
STANTON        CLOUDY    48  33  55 N7        29.97R
DODGE CENTER   CLOUDY    45  32  61 N6        29.97R
WINONA         MOSUNNY   48  34  57 CALM      29.96F
AUSTIN         CLOUDY    45  32  61 N5        29.96R
PRESTON        CLOUDY    43  33  65 NE6       29.94R
$$
ABBREVIATIONS USED IN REMARKS
   TC - TEMPERATURES IN CELSIUS
  WCI - WIND CHILL INDEX
   HX - HEAT INDEX
  VSB - VISIBILITY
$$




USA.gov is the U.S. government's official web portal to all federal, state and local government web resources and services.